Time,TemperatureF,DewpointF,PressureIn,WindDirection,WindDirectionDegrees,WindSpeedMPH,WindSpeedGustMPH,Humidity,HourlyPrecipIn,Conditions,Clouds,dailyrainin,SoftwareType,DateUTC
2013-04-24 00:00:00,42.0,42.0,30.11,NNE,20,29.0,32.0,99,-99.99,,,-99.99,,2013-04-24 04:00:00,
2013-04-24 00:22:00,42.0,42.0,30.11,NNE,20,29.0,32.0,99,-99.99,,,-99.99,,2013-04-24 04:22:00,
2013-04-24 00:33:00,42.0,42.0,30.11,NNE,20,29.0,32.0,99,-99.99,,,-99.99,,2013-04-24 04:33:00,
2013-04-24 00:43:00,42.0,42.0,30.11,NNE,20,29.0,32.0,99,-99.99,,,-99.99,,2013-04-24 04:43:00,
2013-04-24 00:52:00,42.0,42.0,30.11,NNE,20,29.0,32.0,99,-99.99,,,-99.99,,2013-04-24 04:52:00,
2013-04-24 01:00:00,42.0,41.0,30.08,North,10,25.0,28.0,99,-99.99,,,-99.99,,2013-04-24 05:00:00,
2013-04-24 01:21:00,42.0,41.0,30.08,North,10,25.0,28.0,99,-99.99,,,-99.99,,2013-04-24 05:21:00,
2013-04-24 01:32:00,42.0,41.0,30.08,North,10,25.0,28.0,99,-99.99,,,-99.99,,2013-04-24 05:32:00,
2013-04-24 01:42:00,42.0,41.0,30.08,North,10,25.0,28.0,99,-99.99,,,-99.99,,2013-04-24 05:42:00,
2013-04-24 01:51:00,42.0,41.0,30.08,North,10,25.0,28.0,99,-99.99,,,-99.99,,2013-04-24 05:51:00,
2013-04-24 02:00:00,42.0,42.0,30.00,NNE,30,31.0,36.0,100,-99.99,,,-99.99,,2013-04-24 06:00:00,
2013-04-24 02:21:00,42.0,42.0,30.00,NNE,30,31.0,36.0,100,-99.99,,,-99.99,,2013-04-24 06:21:00,
2013-04-24 02:32:00,42.0,42.0,30.00,NNE,30,31.0,36.0,100,-99.99,,,-99.99,,2013-04-24 06:32:00,
2013-04-24 02:41:00,42.0,42.0,30.00,NNE,30,31.0,36.0,100,-99.99,,,-99.99,,2013-04-24 06:41:00,
2013-04-24 02:51:00,42.0,42.0,30.00,NNE,30,31.0,36.0,100,-99.99,,,-99.99,,2013-04-24 06:51:00,
2013-04-24 03:00:00,42.0,42.0,29.95,NNE,20,34.0,39.0,99,-99.99,,,-99.99,,2013-04-24 07:00:00,
2013-04-24 03:21:00,42.0,42.0,29.95,NNE,20,34.0,39.0,99,-99.99,,,-99.99,,2013-04-24 07:21:00,
2013-04-24 03:31:00,42.0,42.0,29.95,NNE,20,34.0,39.0,99,-99.99,,,-99.99,,2013-04-24 07:31:00,
2013-04-24 03:41:00,42.0,42.0,29.95,NNE,20,34.0,39.0,99,-99.99,,,-99.99,,2013-04-24 07:41:00,
2013-04-24 03:51:00,42.0,42.0,29.95,NNE,20,34.0,39.0,99,-99.99,,,-99.99,,2013-04-24 07:51:00,
2013-04-24 04:00:00,43.0,43.0,29.93,NNE,20,33.0,40.0,99,-99.99,,,-99.99,,2013-04-24 08:00:00,
2013-04-24 04:21:00,43.0,43.0,29.93,NNE,20,33.0,40.0,99,-99.99,,,-99.99,,2013-04-24 08:21:00,
2013-04-24 04:32:00,43.0,43.0,29.93,NNE,20,33.0,40.0,99,-99.99,,,-99.99,,2013-04-24 08:32:00,
2013-04-24 04:42:00,43.0,43.0,29.93,NNE,20,33.0,40.0,99,-99.99,,,-99.99,,2013-04-24 08:42:00,
2013-04-24 04:51:00,43.0,43.0,29.93,NNE,20,33.0,40.0,99,-99.99,,,-99.99,,2013-04-24 08:51:00,
2013-04-24 05:00:00,43.0,43.0,29.94,North,360,30.0,32.0,99,-99.99,,,-99.99,,2013-04-24 09:00:00,
2013-04-24 05:21:00,43.0,43.0,29.94,North,360,30.0,32.0,99,-99.99,,,-99.99,,2013-04-24 09:21:00,
2013-04-24 05:32:00,43.0,43.0,29.94,North,360,30.0,32.0,99,-99.99,,,-99.99,,2013-04-24 09:32:00,
2013-04-24 05:42:00,43.0,43.0,29.94,North,360,30.0,32.0,99,-99.99,,,-99.99,,2013-04-24 09:42:00,
2013-04-24 05:52:00,43.0,43.0,29.94,North,360,30.0,32.0,99,-99.99,,,-99.99,,2013-04-24 09:52:00,
2013-04-24 06:00:00,43.0,42.0,29.92,NNW,340,26.0,29.0,99,-99.99,,,-99.99,,2013-04-24 10:00:00,
2013-04-24 06:22:00,43.0,42.0,29.92,NNW,340,26.0,29.0,99,-99.99,,,-99.99,,2013-04-24 10:22:00,
2013-04-24 06:32:00,43.0,42.0,29.92,NNW,340,26.0,29.0,99,-99.99,,,-99.99,,2013-04-24 10:32:00,
2013-04-24 06:42:00,43.0,42.0,29.92,NNW,340,26.0,29.0,99,-99.99,,,-99.99,,2013-04-24 10:42:00,
2013-04-24 06:52:00,43.0,42.0,29.92,NNW,340,26.0,29.0,99,-99.99,,,-99.99,,2013-04-24 10:52:00,
2013-04-24 07:00:00,43.0,43.0,29.92,NNW,340,23.0,24.0,99,-99.99,,,-99.99,,2013-04-24 11:00:00,
2013-04-24 07:21:00,43.0,43.0,29.92,NNW,340,23.0,24.0,99,-99.99,,,-99.99,,2013-04-24 11:21:00,
2013-04-24 07:31:00,43.0,43.0,29.92,NNW,340,23.0,24.0,99,-99.99,,,-99.99,,2013-04-24 11:31:00,
2013-04-24 07:42:00,43.0,43.0,29.92,NNW,340,23.0,24.0,99,-99.99,,,-99.99,,2013-04-24 11:42:00,
2013-04-24 07:52:00,43.0,43.0,29.92,NNW,340,23.0,24.0,99,-99.99,,,-99.99,,2013-04-24 11:52:00,
2013-04-24 08:00:00,43.0,43.0,29.92,NNW,330,26.0,29.0,99,-99.99,,,-99.99,,2013-04-24 12:00:00,
2013-04-24 08:22:00,43.0,43.0,29.92,NNW,330,26.0,29.0,99,-99.99,,,-99.99,,2013-04-24 12:22:00,
2013-04-24 08:31:00,43.0,43.0,29.92,NNW,330,26.0,29.0,99,-99.99,,,-99.99,,2013-04-24 12:31:00,
2013-04-24 08:42:00,43.0,43.0,29.92,NNW,330,26.0,29.0,99,-99.99,,,-99.99,,2013-04-24 12:42:00,
2013-04-24 08:51:00,43.0,43.0,29.92,NNW,330,26.0,29.0,99,-99.99,,,-99.99,,2013-04-24 12:51:00,
2013-04-24 09:00:00,44.0,44.0,29.92,NNW,330,21.0,22.0,99,-99.99,,,-99.99,,2013-04-24 13:00:00,
2013-04-24 09:21:00,44.0,44.0,29.92,NNW,330,21.0,22.0,99,-99.99,,,-99.99,,2013-04-24 13:21:00,
2013-04-24 09:31:00,44.0,44.0,29.92,NNW,330,21.0,22.0,99,-99.99,,,-99.99,,2013-04-24 13:31:00,
2013-04-24 09:41:00,44.0,44.0,29.92,NNW,330,21.0,22.0,99,-99.99,,,-99.99,,2013-04-24 13:41:00,
2013-04-24 09:51:00,44.0,44.0,29.92,NNW,330,21.0,22.0,99,-99.99,,,-99.99,,2013-04-24 13:51:00,
2013-04-24 10:00:00,46.0,44.0,29.91,NNW,340,17.0,20.0,95,-99.99,,,-99.99,,2013-04-24 14:00:00,
2013-04-24 10:21:00,46.0,44.0,29.91,NNW,340,17.0,20.0,95,-99.99,,,-99.99,,2013-04-24 14:21:00,
2013-04-24 10:31:00,46.0,44.0,29.91,NNW,340,17.0,20.0,95,-99.99,,,-99.99,,2013-04-24 14:31:00,
2013-04-24 10:41:00,46.0,44.0,29.91,NNW,340,17.0,20.0,95,-99.99,,,-99.99,,2013-04-24 14:41:00,
2013-04-24 10:51:00,46.0,44.0,29.91,NNW,340,17.0,20.0,95,-99.99,,,-99.99,,2013-04-24 14:51:00,
2013-04-24 11:00:00,47.0,44.0,29.89,North,360,14.0,14.0,92,-99.99,,,-99.99,,2013-04-24 15:00:00,
2013-04-24 11:21:00,47.0,44.0,29.89,North,360,14.0,14.0,92,-99.99,,,-99.99,,2013-04-24 15:21:00,
2013-04-24 11:32:00,47.0,44.0,29.89,North,360,14.0,14.0,92,-99.99,,,-99.99,,2013-04-24 15:32:00,
2013-04-24 11:42:00,47.0,44.0,29.89,North,360,14.0,14.0,92,-99.99,,,-99.99,,2013-04-24 15:42:00,
2013-04-24 11:52:00,47.0,44.0,29.89,North,360,14.0,14.0,92,-99.99,,,-99.99,,2013-04-24 15:52:00,
2013-04-24 12:00:00,47.0,45.0,29.87,North,10,13.0,14.0,91,-99.99,,,-99.99,,2013-04-24 16:00:00,
2013-04-24 12:23:00,47.0,45.0,29.87,North,10,13.0,14.0,91,-99.99,,,-99.99,,2013-04-24 16:23:00,
2013-04-24 12:32:00,47.0,45.0,29.87,North,10,13.0,14.0,91,-99.99,,,-99.99,,2013-04-24 16:32:00,
2013-04-24 12:42:00,47.0,45.0,29.87,North,10,13.0,14.0,91,-99.99,,,-99.99,,2013-04-24 16:42:00,
2013-04-24 12:52:00,47.0,45.0,29.87,North,10,13.0,14.0,91,-99.99,,,-99.99,,2013-04-24 16:52:00,
2013-04-24 13:00:00,51.0,46.0,29.86,North,350,2.0,3.0,83,-99.99,,,-99.99,,2013-04-24 17:00:00,
2013-04-24 13:22:00,51.0,46.0,29.86,North,350,2.0,3.0,83,-99.99,,,-99.99,,2013-04-24 17:22:00,
2013-04-24 13:32:00,51.0,46.0,29.86,North,350,2.0,3.0,83,-99.99,,,-99.99,,2013-04-24 17:32:00,
2013-04-24 13:42:00,51.0,46.0,29.86,North,350,2.0,3.0,83,-99.99,,,-99.99,,2013-04-24 17:42:00,
2013-04-24 13:51:00,51.0,46.0,29.86,North,350,2.0,3.0,83,-99.99,,,-99.99,,2013-04-24 17:51:00,
2013-04-24 14:00:00,51.0,47.0,29.84,SSE,160,10.0,10.0,85,-99.99,,,-99.99,,2013-04-24 18:00:00,
2013-04-24 14:21:00,51.0,47.0,29.84,SSE,160,10.0,10.0,85,-99.99,,,-99.99,,2013-04-24 18:21:00,
2013-04-24 14:32:00,51.0,47.0,29.84,SSE,160,10.0,10.0,85,-99.99,,,-99.99,,2013-04-24 18:32:00,
2013-04-24 14:42:00,51.0,47.0,29.84,SSE,160,10.0,10.0,85,-99.99,,,-99.99,,2013-04-24 18:42:00,
2013-04-24 14:52:00,51.0,47.0,29.84,SSE,160,10.0,10.0,85,-99.99,,,-99.99,,2013-04-24 18:52:00,
2013-04-24 15:00:00,51.0,47.0,29.80,SE,140,17.0,17.0,87,-99.99,,,-99.99,,2013-04-24 19:00:00,
2013-04-24 15:21:00,51.0,47.0,29.80,SE,140,17.0,17.0,87,-99.99,,,-99.99,,2013-04-24 19:21:00,
2013-04-24 15:31:00,51.0,47.0,29.80,SE,140,17.0,17.0,87,-99.99,,,-99.99,,2013-04-24 19:31:00,
2013-04-24 15:41:00,51.0,47.0,29.80,SE,140,17.0,17.0,87,-99.99,,,-99.99,,2013-04-24 19:41:00,
2013-04-24 15:52:00,51.0,47.0,29.80,SE,140,17.0,17.0,87,-99.99,,,-99.99,,2013-04-24 19:52:00,
2013-04-24 16:00:00,50.0,46.0,29.80,SSE,150,20.0,21.0,87,-99.99,,,-99.99,,2013-04-24 20:00:00,
2013-04-24 16:21:00,50.0,46.0,29.80,SSE,150,20.0,21.0,87,-99.99,,,-99.99,,2013-04-24 20:21:00,
2013-04-24 16:32:00,50.0,46.0,29.80,SSE,150,20.0,21.0,87,-99.99,,,-99.99,,2013-04-24 20:32:00,
2013-04-24 16:42:00,50.0,46.0,29.80,SSE,150,20.0,21.0,87,-99.99,,,-99.99,,2013-04-24 20:42:00,
2013-04-24 16:51:00,50.0,46.0,29.80,SSE,150,20.0,21.0,87,-99.99,,,-99.99,,2013-04-24 20:51:00,
2013-04-24 17:00:00,48.0,46.0,29.79,SSE,150,23.0,24.0,91,-99.99,,,-99.99,,2013-04-24 21:00:00,
2013-04-24 17:21:00,48.0,46.0,29.79,SSE,150,23.0,24.0,91,-99.99,,,-99.99,,2013-04-24 21:21:00,
2013-04-24 17:32:00,48.0,46.0,29.79,SSE,150,23.0,24.0,91,-99.99,,,-99.99,,2013-04-24 21:32:00,
2013-04-24 17:42:00,48.0,46.0,29.79,SSE,150,23.0,24.0,91,-99.99,,,-99.99,,2013-04-24 21:42:00,
2013-04-24 17:52:00,48.0,46.0,29.79,SSE,150,23.0,24.0,91,-99.99,,,-99.99,,2013-04-24 21:52:00,
2013-04-24 18:00:00,48.0,45.0,29.78,SSE,150,23.0,25.0,90,-99.99,,,-99.99,,2013-04-24 22:00:00,
2013-04-24 18:32:00,48.0,45.0,29.78,SSE,150,23.0,25.0,90,-99.99,,,-99.99,,2013-04-24 22:32:00,
2013-04-24 18:42:00,48.0,45.0,29.78,SSE,150,23.0,25.0,90,-99.99,,,-99.99,,2013-04-24 22:42:00,
2013-04-24 18:52:00,48.0,45.0,29.78,SSE,150,23.0,25.0,90,-99.99,,,-99.99,,2013-04-24 22:52:00,
2013-04-24 19:00:00,49.0,45.0,29.77,SSE,160,25.0,26.0,87,-99.99,,,-99.99,,2013-04-24 23:00:00,
2013-04-24 19:21:00,49.0,45.0,29.77,SSE,160,25.0,26.0,87,-99.99,,,-99.99,,2013-04-24 23:21:00,
2013-04-24 19:32:00,49.0,45.0,29.77,SSE,160,25.0,26.0,87,-99.99,,,-99.99,,2013-04-24 23:32:00,
2013-04-24 19:41:00,49.0,45.0,29.77,SSE,160,25.0,26.0,87,-99.99,,,-99.99,,2013-04-24 23:41:00,
2013-04-24 19:51:00,49.0,45.0,29.77,SSE,160,25.0,26.0,87,-99.99,,,-99.99,,2013-04-24 23:51:00,
2013-04-24 20:00:00,50.0,45.0,29.77,SSE,160,26.0,29.0,83,-99.99,,,-99.99,,2013-04-25 00:00:00,
2013-04-24 20:22:00,50.0,45.0,29.77,SSE,160,26.0,29.0,83,-99.99,,,-99.99,,2013-04-25 00:22:00,
2013-04-24 20:32:00,50.0,45.0,29.77,SSE,160,26.0,29.0,83,-99.99,,,-99.99,,2013-04-25 00:32:00,
2013-04-24 20:41:00,50.0,45.0,29.77,SSE,160,26.0,29.0,83,-99.99,,,-99.99,,2013-04-25 00:41:00,
2013-04-24 20:51:00,50.0,45.0,29.77,SSE,160,26.0,29.0,83,-99.99,,,-99.99,,2013-04-25 00:51:00,
2013-04-24 21:00:00,54.0,45.0,29.78,South,180,31.0,32.0,72,-99.99,,,-99.99,,2013-04-25 01:00:00,
2013-04-24 21:22:00,54.0,45.0,29.78,South,180,31.0,32.0,72,-99.99,,,-99.99,,2013-04-25 01:22:00,
2013-04-24 21:32:00,54.0,45.0,29.78,South,180,31.0,32.0,72,-99.99,,,-99.99,,2013-04-25 01:32:00,
2013-04-24 21:41:00,54.0,45.0,29.78,South,180,31.0,32.0,72,-99.99,,,-99.99,,2013-04-25 01:41:00,
2013-04-24 21:52:00,54.0,45.0,29.78,South,180,31.0,32.0,72,-99.99,,,-99.99,,2013-04-25 01:52:00,
2013-04-24 22:00:00,52.0,45.0,29.79,South,190,33.0,34.0,77,-99.99,,,-99.99,,2013-04-25 02:00:00,
2013-04-24 22:21:00,52.0,45.0,29.79,South,190,33.0,34.0,77,-99.99,,,-99.99,,2013-04-25 02:21:00,
2013-04-24 22:32:00,52.0,45.0,29.79,South,190,33.0,34.0,77,-99.99,,,-99.99,,2013-04-25 02:32:00,
2013-04-24 22:41:00,52.0,45.0,29.79,South,190,33.0,34.0,77,-99.99,,,-99.99,,2013-04-25 02:41:00,
2013-04-24 22:51:00,52.0,45.0,29.79,South,190,33.0,34.0,77,-99.99,,,-99.99,,2013-04-25 02:51:00,
2013-04-24 23:00:00,51.0,46.0,29.80,South,180,28.0,29.0,83,-99.99,,,-99.99,,2013-04-25 03:00:00,
2013-04-24 23:21:00,51.0,46.0,29.80,South,180,28.0,29.0,83,-99.99,,,-99.99,,2013-04-25 03:21:00,
2013-04-24 23:32:00,51.0,46.0,29.80,South,180,28.0,29.0,83,-99.99,,,-99.99,,2013-04-25 03:32:00,
2013-04-24 23:42:00,51.0,46.0,29.80,South,180,28.0,29.0,83,-99.99,,,-99.99,,2013-04-25 03:42:00,
2013-04-24 23:52:00,51.0,46.0,29.80,South,180,28.0,29.0,83,-99.99,,,-99.99,,2013-04-25 03:52:00,